Weather History for Watonga, OK

Change the Weather History Date:

Thursday, August 8, 2013

  Actual Average Record
Temperature  
Mean Temperature 76 °F -  
Max Temperature 87 °F 94 °F 106 °F (1970)
Min Temperature 67 °F 70 °F 52 °F (1989)
Cooling Degree Days 12    
Growing Degree Days 26 (Base 50)    
Moisture  
Dew Point 72 °F    
Average Humidity 90    
Maximum Humidity 100    
Minimum Humidity 64    
Precipitation  
Precipitation 1.27 in - - ()
Sea Level Pressure  
Sea Level Pressure 29.93 in    
Wind  
Wind Speed 0 mph (North)    
Max Wind Speed 0 mph    
Max Gust Speed -    
Visibility 8 miles    
Events Rain , Thunderstorm    
Averages and records for this station are not official NWS values.
T = Trace of Precipitation, MM = Missing Value Source: NWS Daily Summary

Daily Weather History Graph

Daily Weather History Graph

Search for Another Location

Airport:

Trip Planner

Search our weather history database for the weather conditions in past years. The results will help you decide how hot, cold, wet, or windy it might be!

Date:

Astronomy

Aug. 08, 2013 Rise Set
Actual Time 6:47 AM CDT 8:30 PM CDT
Civil Twilight 6:19 AM CDT 8:58 PM CDT
Nautical Twilight 5:46 AM CDT 9:31 PM CDT
Astronomical Twilight 5:10 AM CDT 10:07 PM CDT
Moon 8:29 AM CDT (8/8) 9:16 PM CDT (8/8)
Length of Visible Light 14h 39m
Length of Day
13h 43m
Waxing Crescent, 3% of the Moon is Illuminated
Aug 8
Waxing Crescent
Aug 14
First Quarter
Aug 20
Full
Aug 28
Last Quarter
Sep 5
New

Hourly Weather History & Observations

Time (CDT) Temp. Heat Index Dew Point Humidity Pressure Visibility Wind Dir Wind Speed Gust Speed Precip Events Conditions
12:15 AM 79.2 °F - 78.8 °F 99% 29.87 in 10.0 mi North - - N/A Rain , Thunderstorm Light Thunderstorms and Rain
12:35 AM 77.9 °F - 76.8 °F 96% 29.87 in 10.0 mi North - - N/A Rain , Thunderstorm Light Thunderstorms and Rain
12:55 AM 77.7 °F - 75.4 °F 92% 29.85 in 10.0 mi North - - N/A Thunderstorm Thunderstorm
1:15 AM 75.0 °F - 72.7 °F 92% 29.88 in 4.0 mi North - - 0.09 in Rain , Thunderstorm Heavy Thunderstorms and Rain
1:35 AM 76.3 °F - 76.3 °F 100% 29.87 in 7.0 mi North - - 0.23 in Rain , Thunderstorm Light Thunderstorms and Rain
1:55 AM 71.1 °F - 71.1 °F 100% 29.94 in 1.5 mi North - - 0.68 in Rain , Thunderstorm Heavy Thunderstorms and Rain
2:15 AM 68.9 °F - 68.9 °F 100% 29.94 in 2.0 mi North - - 0.36 in Rain , Thunderstorm Heavy Thunderstorms and Rain
2:35 AM 69.8 °F - 69.8 °F 100% 29.93 in 7.0 mi North - - 0.44 in Rain , Thunderstorm Light Thunderstorms and Rain
2:55 AM 69.1 °F - 69.1 °F 100% 29.94 in 5.0 mi North - - 0.44 in Rain , Thunderstorm Light Thunderstorms and Rain
3:15 AM 68.7 °F - 68.7 °F 100% 29.93 in 10.0 mi North - - 0.01 in Rain , Thunderstorm Light Thunderstorms and Rain
3:35 AM 68.5 °F - 68.5 °F 100% 29.96 in 10.0 mi North - - 0.02 in Rain , Thunderstorm Thunderstorms and Rain
3:55 AM 68.4 °F - 68.4 °F 100% 29.95 in 10.0 mi North - - 0.03 in Thunderstorm Thunderstorm
4:15 AM 68.4 °F - 68.4 °F 100% 29.92 in 10.0 mi North - - N/A Thunderstorm Clear
4:35 AM 68.2 °F - 68.2 °F 100% 29.91 in - North - - N/A   Unknown
4:55 AM 68.2 °F - 68.2 °F 100% 29.89 in - North - - N/A   Unknown
5:15 AM 68.0 °F - 68.0 °F 100% 29.88 in - North - - N/A   Unknown
5:35 AM 68.2 °F - 68.2 °F 100% 29.90 in - North - - N/A   Unknown
5:55 AM 68.5 °F - 68.5 °F 100% 29.92 in - North - - N/A   Unknown
6:15 AM 68.9 °F - 68.9 °F 100% 29.91 in - North - - N/A   Unknown
6:35 AM 68.9 °F - 68.9 °F 100% 29.91 in - North - - N/A   Unknown
6:55 AM 69.3 °F - 69.3 °F 100% 29.91 in - North - - N/A   Unknown
7:15 AM 68.9 °F - 68.9 °F 100% 29.91 in - North - - N/A   Unknown
7:35 AM 69.3 °F - 69.3 °F 100% 29.91 in - North - - N/A   Mostly Cloudy
7:55 AM 69.6 °F - 69.6 °F 100% 29.92 in 10.0 mi North - - N/A   Scattered Clouds
8:15 AM 70.2 °F - 70.2 °F 100% 29.94 in 10.0 mi North - - N/A   Clear
8:35 AM 70.2 °F - 70.2 °F 100% 29.94 in 10.0 mi North - - N/A   Scattered Clouds
8:55 AM 70.9 °F - 70.9 °F 100% 29.94 in 10.0 mi North - - N/A   Scattered Clouds
9:15 AM 70.9 °F - 70.9 °F 100% 29.94 in 10.0 mi North - - N/A   Scattered Clouds
9:35 AM 70.3 °F - 70.3 °F 100% 29.94 in 10.0 mi North - - N/A Rain Rain
9:55 AM 70.3 °F - 70.3 °F 100% 29.94 in 10.0 mi North - - N/A   Light Drizzle
10:15 AM 70.7 °F - 70.7 °F 100% 29.95 in 10.0 mi North - - N/A   Mostly Cloudy
10:35 AM 70.7 °F - 70.7 °F 100% 29.95 in 10.0 mi North - - N/A   Overcast
10:55 AM 72.0 °F - 72.0 °F 100% 29.95 in - North - - N/A   Unknown
11:15 AM 72.7 °F - 72.7 °F 100% 29.96 in - North - - N/A   Unknown
11:35 AM 75.2 °F - 74.3 °F 97% 29.97 in - North - - N/A   Overcast
11:55 AM 76.5 °F - 74.3 °F 93% 29.96 in - North - - N/A   Mostly Cloudy
12:15 PM 76.8 °F - 72.1 °F 85% 29.96 in - North - - N/A   Mostly Cloudy
12:35 PM 76.5 °F - 72.1 °F 86% 29.96 in - North - - N/A   Overcast
12:55 PM 77.9 °F - 72.7 °F 84% 29.96 in - North - - N/A   Overcast
1:15 PM 78.3 °F - 72.5 °F 82% 29.96 in - North - - N/A   Overcast
1:35 PM 77.7 °F - 72.0 °F 82% 29.96 in - North - - N/A   Overcast
1:55 PM 79.5 °F - 72.9 °F 80% 29.95 in - North - - N/A   Overcast
2:15 PM 79.7 °F - 73.0 °F 80% 29.95 in - Calm Calm - N/A   Mostly Cloudy
2:35 PM 80.6 °F 85.4 °F 73.6 °F 79% 29.95 in - North - - N/A   Mostly Cloudy
2:55 PM 81.7 °F 87.6 °F 74.1 °F 78% 29.95 in - North - - N/A   Scattered Clouds
3:15 PM 82.8 °F 89.2 °F 74.1 °F 75% 29.94 in - North - - N/A   Scattered Clouds
3:35 PM 83.5 °F 90.6 °F 74.5 °F 74% 29.94 in - North - - N/A   Scattered Clouds
3:55 PM 84.6 °F 92.1 °F 74.1 °F 71% 29.93 in - North - - N/A   Clear
4:15 PM 84.2 °F 91.2 °F 73.8 °F 71% 29.92 in - North - - N/A   Clear
4:35 PM 84.7 °F 92.1 °F 73.9 °F 70% 29.92 in - Calm Calm - N/A   Clear
4:55 PM 86.0 °F 94.2 °F 74.1 °F 68% 29.91 in - Calm Calm - N/A   Clear
5:15 PM 86.0 °F 93.8 °F 73.8 °F 67% 29.91 in - Calm Calm - N/A   Clear
5:35 PM 86.4 °F 94.2 °F 73.9 °F 66% 29.90 in - Calm Calm - N/A   Clear
5:55 PM 86.9 °F 94.5 °F 73.6 °F 64% 29.90 in - Calm Calm - N/A   Clear
6:15 PM 86.7 °F 94.1 °F 73.4 °F 64% 29.90 in - Calm Calm - N/A   Clear
6:35 PM 84.9 °F 91.4 °F 73.0 °F 67% 29.90 in - North - - N/A   Scattered Clouds
6:55 PM 84.9 °F 93.3 °F 74.8 °F 72% 29.89 in - North - - N/A   Mostly Cloudy
7:15 PM 83.7 °F 91.3 °F 74.8 °F 75% 29.89 in - North - - N/A   Mostly Cloudy
7:35 PM 82.6 °F 89.1 °F 74.5 °F 76% 29.90 in - North - - N/A   Scattered Clouds
7:55 PM 81.1 °F 87.2 °F 75.2 °F 82% 29.91 in - North - - N/A   Clear
8:15 PM 80.6 °F 86.2 °F 75.2 °F 84% 29.91 in - North - - N/A   Clear
8:35 PM 79.3 °F - 75.2 °F 87% 29.92 in - North - - N/A   Unknown
8:55 PM 79.2 °F - 75.2 °F 88% 29.92 in - North - - N/A   Unknown
9:15 PM 79.0 °F - 74.8 °F 87% 29.92 in - North - - N/A   Unknown
9:35 PM 79.2 °F - 75.0 °F 87% 29.93 in - North - - N/A   Mostly Cloudy
9:55 PM 78.8 °F - 75.2 °F 89% 29.91 in - North - - N/A   Unknown
10:15 PM 78.6 °F - 75.7 °F 91% 29.93 in - North - - N/A Thunderstorm Unknown
10:35 PM 78.6 °F - 75.7 °F 91% 29.91 in - North - - N/A Thunderstorm Unknown
10:55 PM 77.9 °F - 77.2 °F 98% 29.94 in - North - - N/A Thunderstorm Unknown
11:15 PM 74.5 °F - 72.1 °F 92% 29.96 in - North - - 0.01 in Thunderstorm Unknown
11:35 PM 67.1 °F - 67.1 °F 100% 29.99 in - North - - 0.10 in Thunderstorm Thunderstorm
11:55 PM 68.2 °F - 68.2 °F 100% 29.95 in - North - - 0.12 in Thunderstorm Thunderstorm